Latest Coastal Weather Observations for Mandurah

IDW60701

Issued at 2:53 am WST Tuesday 25 April 2017 (issued every 10 minutes, with the page automatically refreshed every 10 minutes)

About coastal observations | Map of coastal stations | Coastal observations for WA | Marine services | Other Formats
Station Details ID: 009977 Name: MANDURAH Lat: -32.52 Lon: 115.71 Height: 3.0 m
Data from the previous 72 hours. | See also: Recent months at Mandurah
Date/Time
WST
Temp
°C
Wind Pressure Rain since
9am
mm
Weather Cloud Vis
km
Sea
Height
m
Swell
Dir  Spd
kts
Gust
kts
hPa Trend Height
m
Period
s
Dir
25/02:30am 14.9 SSE 8 12 1024.4 - 0.0 - - - - - - -
25/02:00am 15.1 SSE 8 13 1024.4 - 0.0 - - - - - - -
25/01:30am 15.5 SSE 8 14 1024.2 - 0.0 - - - - - - -
25/01:00am 15.8 S 8 14 1024.0 - 0.0 - - - - - - -
25/12:30am 16.0 S 7 11 1023.7 - 0.0 - - - - - - -
25/12:00am 16.3 SSE 8 11 1023.5 - 0.0 - - - - - - -
 
Date/Time
WST
Temp
°C
Wind Pressure Rain since
9am
mm
Weather Cloud Vis
km
Sea
Height
m
Swell
Dir  Spd
kts
Gust
kts
hPa Trend Height
m
Period
s
Dir
24/11:30pm 16.6 S 9 13 1023.4 - 0.0 - - - - - - -
24/11:00pm 16.7 S 7 12 1023.4 - 0.0 - - - - - - -
24/10:30pm 17.1 SSE 9 13 1023.4 - 0.0 - - - - - - -
24/10:00pm 17.6 SSE 10 15 1023.4 - 0.0 - - - - - - -
24/09:30pm 18.1 S 10 16 1023.1 - 0.0 - - - - - - -
24/09:00pm 18.5 S 12 19 1022.7 - 0.0 - - - - - - -
24/08:30pm 19.3 S 10 16 1022.2 - 0.0 - - - - - - -
24/08:00pm 19.7 S 10 16 1021.9 - 0.0 - - - - - - -
24/07:30pm 20.1 S 9 17 1021.6 - 0.0 - - - - - - -
24/07:00pm 20.2 S 7 12 1021.3 - 0.0 - - - - - - -
24/06:30pm 20.3 SSW 7 11 1020.9 - 0.0 - - - - - - -
24/06:00pm 20.6 SSW 9 14 1020.6 - 0.0 - - - - - - -
24/05:30pm 21.1 SSW 8 13 1020.5 - 0.0 - - - - - - -
24/05:00pm 21.3 SSW 8 12 1020.2 - 0.0 - - - - - - -
24/04:30pm 21.7 SSW 8 12 1020.0 - 0.0 - - - - - - -
24/04:00pm 22.4 SW 6 9 1019.9 - 0.0 - - - - - - -
24/03:30pm 22.7 SW 7 11 1019.8 - 0.0 - - - - - - -
24/03:00pm 22.5 WSW 8 11 1019.8 - 0.0 - - - - - - -
24/02:30pm 22.6 WSW 9 13 1019.9 - 0.0 - - - - - - -
24/02:00pm 23.3 WSW 8 11 1020.0 - 0.0 - - - - - - -
24/01:30pm 22.8 WSW 7 10 1020.2 - 0.0 - - - - - - -
24/01:00pm 24.1 WSW 5 7 1020.6 - 0.0 - - - - - - -
24/12:30pm 23.7 WSW 5 7 1021.1 - 0.0 - - - - - - -
24/12:00pm 22.9 SE 3 4 1021.6 - 0.0 - - - - - - -
24/11:30am 21.6 S 3 5 1022.1 - 0.0 - - - - - - -
24/11:00am 20.7 S 4 5 1022.3 - 0.0 - - - - - - -
24/10:30am 20.1 SSE 3 5 1022.5 - 0.0 - - - - - - -
24/10:00am 19.5 ESE 3 6 1022.7 - 0.0 - - - - - - -
24/09:30am 18.7 SE 4 7 1022.8 - 0.0 - - - - - - -
24/09:00am 17.9 E 4 6 1022.8 - 0.0 - - - - - - -
24/08:30am 16.2 SE 5 7 1022.6 - 0.0 - - - - - - -
24/08:00am 15.4 ESE 4 6 1022.4 - 0.0 - - - - - - -
24/07:30am 15.0 SE 5 6 1022.1 - 0.0 - - - - - - -
24/07:00am 14.8 ESE 4 6 1021.9 - 0.0 - - - - - - -
24/06:30am 14.7 ESE 4 5 1021.6 - 0.0 - - - - - - -
24/06:00am 15.0 ESE 3 4 1021.5 - 0.0 - - - - - - -
24/05:30am 15.5 ESE 3 5 1021.3 - 0.0 - - - - - - -
24/05:00am 16.0 SE 4 6 1021.1 - 0.0 - - - - - - -
24/04:30am 16.2 SE 4 6 1021.0 - 0.0 - - - - - - -
24/04:00am 16.8 SE 5 7 1021.1 - 0.0 - - - - - - -
24/03:30am 17.1 SE 5 7 1021.0 - 0.0 - - - - - - -
24/03:00am 17.2 SE 4 6 1021.2 - 0.0 - - - - - - -
24/02:30am 17.6 SE 3 5 1021.1 - 0.0 - - - - - - -
24/02:00am 17.7 SE 3 5 1021.0 - 0.0 - - - - - - -
24/01:30am 18.2 SE 4 5 1020.9 - 0.0 - - - - - - -
24/01:00am 18.6 SSE 4 6 1020.8 - 0.0 - - - - - - -
24/12:30am 18.7 ESE 4 9 1020.8 - 0.0 - - - - - - -
24/12:00am 19.1 ESE 5 9 1020.7 - 0.0 - - - - - - -
 
Date/Time
WST
Temp
°C
Wind Pressure Rain since
9am
mm
Weather Cloud Vis
km
Sea
Height
m
Swell
Dir  Spd
kts
Gust
kts
hPa Trend Height
m
Period
s
Dir
23/11:30pm 19.0 ESE 4 8 1020.8 - 0.0 - - - - - - -
23/11:00pm 19.4 ESE 4 7 1021.1 - 0.0 - - - - - - -
23/10:30pm 19.7 ESE 3 5 1021.1 - 0.0 - - - - - - -
23/10:00pm 20.1 ESE 4 7 1021.3 - 0.0 - - - - - - -
23/09:30pm 21.0 SE 6 9 1021.2 - 0.0 - - - - - - -
23/09:00pm 21.5 SE 7 11 1021.0 - 0.0 - - - - - - -
23/08:30pm 22.0 SE 7 11 1020.7 - 0.0 - - - - - - -
23/08:00pm 22.3 ESE 6 10 1020.4 - 0.0 - - - - - - -
23/07:30pm 22.4 ESE 5 7 1020.0 - 0.0 - - - - - - -
23/07:00pm 23.0 SE 6 8 1019.7 - 0.0 - - - - - - -
23/06:30pm 23.5 SE 7 10 1019.2 - 0.0 - - - - - - -
23/06:00pm 24.0 ESE 7 11 1018.9 - 0.0 - - - - - - -
23/05:30pm 24.8 ESE 7 14 1018.6 - 0.0 - - - - - - -
23/05:00pm 25.4 ESE 9 16 1018.2 - 0.0 - - - - - - -
23/04:30pm 25.8 SE 9 13 1018.0 - 0.0 - - - - - - -
23/04:00pm 26.0 SE 9 13 1018.1 - 0.0 - - - - - - -
23/03:30pm 26.1 SE 9 13 1018.1 - 0.0 - - - - - - -
23/03:00pm 26.3 SSE 8 13 1018.2 - 0.0 - - - - - - -
23/02:30pm 26.3 SE 8 13 1018.2 - 0.0 - - - - - - -
23/02:00pm 25.9 SSE 8 15 1018.2 - 0.0 - - - - - - -
23/01:30pm 26.6 SE 7 13 1018.5 - 0.0 - - - - - - -
23/01:00pm 25.2 SSE 6 11 1018.8 - 0.0 - - - - - - -
23/12:30pm 25.2 SSE 7 13 1019.1 - 0.0 - - - - - - -
23/12:00pm 26.0 ESE 6 10 1019.6 - 0.0 - - - - - - -
23/11:30am 25.0 ESE 8 12 1020.0 - 0.0 - - - - - - -
23/11:00am 23.6 SE 9 14 1020.4 - 0.0 - - - - - - -
23/10:30am 23.1 ESE 8 13 1020.8 - 0.0 - - - - - - -
23/10:00am 21.8 SE 9 16 1021.1 - 0.0 - - - - - - -
23/09:30am 21.2 ESE 7 12 1021.4 - 0.0 - - - - - - -
23/09:00am 20.4 SE 9 13 1021.7 - 0.0 - - - - - - -
23/08:30am 19.4 SE 4 8 1021.8 - 0.0 - - - - - - -
23/08:00am 18.3 SSE 4 6 1021.6 - 0.0 - - - - - - -
23/07:30am 17.9 SSE 4 7 1021.3 - 0.0 - - - - - - -
23/07:00am 17.6 SE 6 9 1021.0 - 0.0 - - - - - - -
23/06:30am 17.6 SE 6 8 1020.9 - 0.0 - - - - - - -
23/06:00am 17.6 SE 5 8 1020.8 - 0.0 - - - - - - -
23/05:30am 17.8 SE 6 8 1020.6 - 0.0 - - - - - - -
23/05:00am 17.9 SE 5 8 1020.6 - 0.0 - - - - - - -
23/04:30am 18.1 SSE 6 9 1020.6 - 0.0 - - - - - - -
23/04:00am 18.2 SE 6 11 1020.6 - 0.0 - - - - - - -
23/03:30am 18.3 SE 6 8 1020.5 - 0.0 - - - - - - -
23/03:00am 18.6 SE 7 10 1020.6 - 0.0 - - - - - - -
23/02:30am 18.9 SSE 6 10 1020.7 - 0.0 - - - - - - -
23/02:00am 18.8 ESE 7 10 1020.7 - 0.0 - - - - - - -
23/01:30am 19.0 SE 7 13 1020.7 - 0.0 - - - - - - -
23/01:00am 18.9 ESE 7 11 1020.7 - 0.0 - - - - - - -
23/12:30am 19.0 ESE 7 12 1020.6 - 0.0 - - - - - - -
23/12:00am 19.3 ESE 7 10 1020.5 - 0.0 - - - - - - -
 
Date/Time
WST
Temp
°C
Wind Pressure Rain since
9am
mm
Weather Cloud Vis
km
Sea
Height
m
Swell
Dir  Spd
kts
Gust
kts
hPa Trend Height
m
Period
s
Dir
22/11:30pm 19.5 SE 7 12 1020.6 - 0.0 - - - - - - -
22/11:00pm 19.7 ESE 7 12 1020.7 - 0.0 - - - - - - -
22/10:30pm 20.0 ESE 6 11 1020.8 - 0.0 - - - - - - -
22/10:00pm 20.4 SE 7 10 1020.8 - 0.0 - - - - - - -
22/09:30pm 20.8 SE 9 13 1020.6 - 0.0 - - - - - - -
22/09:00pm 21.3 SE 10 15 1020.5 - 0.0 - - - - - - -
22/08:30pm 21.5 SE 10 16 1020.4 - 0.0 - - - - - - -
22/08:00pm 21.9 SE 8 11 1020.2 - 0.0 - - - - - - -
22/07:30pm 22.3 SE 8 12 1020.0 - 0.0 - - - - - - -
22/07:00pm 22.6 SSE 11 15 1019.8 - 0.0 - - - - - - -
22/06:30pm 23.1 SSE 10 15 1019.4 - 0.0 - - - - - - -
22/06:00pm 23.6 SSE 7 13 1019.0 - 0.0 - - - - - - -
22/05:30pm 24.4 SSE 8 12 1018.5 - 0.0 - - - - - - -
22/05:00pm 25.1 SSE 7 13 1018.1 - 0.0 - - - - - - -
22/04:30pm 25.8 SSE 7 12 1017.9 - 0.0 - - - - - - -
22/04:00pm 26.1 S 6 9 1017.8 - 0.0 - - - - - - -
22/03:30pm 25.9 SSW 7 11 1017.8 - 0.0 - - - - - - -
22/03:00pm 26.2 S 7 11 1017.9 - 0.0 - - - - - - -
22/02:30pm 25.9 S 7 11 1018.0 - 0.0 - - - - - - -
22/02:00pm 25.6 S 6 9 1018.2 - 0.0 - - - - - - -
22/01:30pm 26.0 S 4 7 1018.4 - 0.0 - - - - - - -
22/01:00pm 26.3 SSW 3 5 1018.9 - 0.0 - - - - - - -
22/12:30pm 25.1 S 4 6 1019.4 - 0.0 - - - - - - -
22/12:00pm 24.4 S 5 7 1019.7 - 0.0 - - - - - - -
22/11:30am 23.7 S 7 9 1019.8 - 0.0 - - - - - - -
22/11:00am 23.0 S 6 9 1019.8 - 0.0 - - - - - - -
22/10:30am 21.9 S 5 8 1019.8 - 0.0 - - - - - - -
22/10:00am 21.0 SSE 5 8 1020.0 - 0.0 - - - - - - -
22/09:30am 20.1 SSE 5 8 1020.2 - 0.0 - - - - - - -
22/09:00am 19.3 SSE 5 8 1020.2 - 0.0 - - - - - - -
22/08:30am 18.5 SSE 5 7 1020.2 - 0.0 - - - - - - -
22/08:00am 17.9 SSE 4 7 1020.0 - 0.0 - - - - - - -
22/07:30am 17.7 SSE 5 7 1019.7 - 0.0 - - - - - - -
22/07:00am 17.5 SE 4 6 1019.2 - 0.0 - - - - - - -
22/06:30am 17.5 SE 4 5 1018.8 - 0.0 - - - - - - -
22/06:00am 18.0 SSE 5 7 1018.6 - 0.0 - - - - - - -
22/05:30am 18.0 SE 4 5 1018.4 - 0.0 - - - - - - -
22/05:00am 18.4 SSE 4 6 1018.3 - 0.0 - - - - - - -
22/04:30am 18.4 SSE 5 8 1018.2 - 0.0 - - - - - - -
22/04:00am 18.3 SE 4 7 1018.0 - 0.0 - - - - - - -
22/03:30am 18.7 SE 5 7 1018.0 - 0.0 - - - - - - -
22/03:00am 18.9 SE 5 7 1017.9 - 0.0 - - - - - - -

Other Formats:

Comma delimited format used in spreadsheet applications
http://www.bom.gov.au/fwo/IDW60701/IDW60701.94605.axf

JavaScript Object Notation format (JSON) in row-major order
http://www.bom.gov.au/fwo/IDW60701/IDW60701.94605.json